User: anonymous   Login
Location: ????????
(55.7667°N, 37.4833°E)
Time: 11:05:00
(UTC+00:00)
Language:

Cosmos 2016 Rocket - Orbit

View from above orbital plane
View from above orbital plane
View from above satellite
View from above satellite

Ground track
Ground track

The orbit data is extracted from the following two-line orbital elements,

1 19922U 89028B   25199.04931093 -.00000010  00000-0 -24712-4 0  9998
2 19922  82.9564  35.9609 0035100 253.0155 106.7155 13.77465641823687
Epoch (UTC): 18 July 2025 01:11:00
Eccentricity: 0.0035100
inclination: 82.9564°
perigee height: 947 km
apogee height: 998 km
right ascension of ascending node: 35.9609°
argument of perigee: 253.0155°
revolutions per day: 13.77465641
mean anomaly at epoch: 106.7155°
orbit number at epoch: 82368

The dashed part of the orbit path shows where the satellite is in the earth's shadow,  

DLR